SES-11 (ECHOSTAR 105)

Last updated on Thu Nov 21 2024 00:02:43 GMT+0000 (Coordinated Universal Time)

1 42967U 17063A 24324.43313241 -.00000087 00000+0 00000+0 0 9995 2 42967 0.0200 307.3314 0003449 293.6020 229.0087 1.00269015 25969
UTC large
Height (km)
Speed (km/s)
/
Latitude / Longitude
Inclination (degrees)
Orbital Period (minutes)
Azimuth
Elevation
Range (km)
Doppler Factor

Next 0 passes for location: London (51.5072 / 0.1276)

Sorry there are no passes over London.